Regional Weather Roundup
Issued by NWS

Home | Current Version | Previous Version | Text Only | Print | Product List | Glossary On
Versions: 1 2 3 4 5 6 7 8 9 10 11 12 13 14 15 16 17 18 19 20 21 22 23 24 25 26 27 28 29 30 31 32 33 34 35 36 37 38 39 40 41 42 43 44 45 46 47 48 49 50
000
ASUS46 KSTO 261009
RWRCA

NORTHERN AND CENTRAL CA REGIONAL WEATHER ROUNDUP
NATIONAL WEATHER SERVICE SACRAMENTO CA
200 AM PST WED NOV 26 2014

NOTE: FAIR INDICATES FEW OR NO CLOUDS BELOW 12,000 FEET WITH NO
SIGNIFICANT WEATHER AND/OR OBSTRUCTIONS TO VISIBILITY.

CAZ001-003-261100-
NORTHWEST AREA

CITY           SKY/WX    TMP DP  RH WIND       PRES   REMARKS
CRESCENT CITY  CLEAR     48  48 100 E3        30.31S
ARCATA         NOT AVBL
SHELTER COVE   NOT AVBL
UKIAH          CLEAR     40  38  93 CALM      30.36R
$$

CAZ006-505>513-261100-
BAY AREA

CITY           SKY/WX    TMP DP  RH WIND       PRES   REMARKS
SANTA ROSA     CLEAR     44  42  93 CALM      30.32R
SAN RAFAEL     N/A       49  MM  MM MISG
NAPA           CLEAR     44  42  93 N6        30.32F
CONCORD        CLEAR     45  42  89 CALM      30.33F FOG
OAKLAND CITY   N/A       50  MM  MM MISG
OAKLAND        CLEAR     51  40  65 CALM      30.31S
SAN FRAN CITY  N/A       56  MM  73 MISG
SAN FRAN ARPT  CLEAR     52  47  83 CALM      30.30F
LIVERMORE      CLEAR     46  42  86 CALM      30.31F
HAYWARD        CLEAR     49  43  80 CALM      30.30F
REDWOOD CITY   N/A       MM  MM  MM MISG
MOFFETT ARPT   CLEAR     47  43  86 CALM      30.32S
SAN JOSE ARPT  CLEAR     46  40  79 CALM      30.31S
$$
CAZ034-037-514>518-261100-
CENTRAL COAST

CITY           SKY/WX    TMP DP  RH WIND       PRES   REMARKS
WATSONVILLE    CLEAR     50  42  74 CALM      30.29S
SALINAS        CLEAR     53  37  54 E15       30.27F
MONTEREY       CLEAR     48  37  65 E3        30.27F
PT PIEDRAS BLS NOT AVBL
SAN LUIS OBISP CLEAR     46  31  55 SE3       30.25F
SANTA MARIA    CLEAR     50  30  46 SE3       30.26F
$$
CAZ015-016-261100-
NORTHERN SACRAMENTO VALLEY

CITY           SKY/WX    TMP DP  RH WIND       PRES   REMARKS
REDDING        CLEAR     41  39  93 CALM      30.34F
RED BLUFF      CLEAR     42  39  89 NW6       30.35F
OROVILLE       CLEAR     45  42  89 CALM      30.36S
$$
CAZ016>018-261100-
SOUTHERN SACRAMENTO VALLEY

CITY           SKY/WX    TMP DP  RH WIND       PRES   REMARKS
AUBURN         CLEAR     52  43  71 E8        30.34F
BEALE AFB      CLEAR     43  42  99 CALM      30.34S
LINCOLN        FAIR      37  36  93 CALM      30.34S
SAC INTL ARPT  CLEAR     40  38  93 CALM      30.34F
MATHER AIRPORT NOT AVBL
DOWNTOWN SAC   N/A       44  MM  MM MISG
SAC EXEC ARPT  CLEAR     43  41  93 CALM      30.34F
VACAVILLE      CLEAR     40  38  93 CALM      30.35F
TRAVIS AFB     CLEAR     40  40 100 E6        30.32F FOG
$$
CAZ019>021-261100-
SAN JOAQUIN VALLEY

CITY           SKY/WX    TMP DP  RH WIND       PRES   REMARKS
STOCKTON       CLEAR     44  42  93 CALM      30.33S FOG
MODESTO        CLEAR     43  40  89 SE5       30.33F FOG
MERCED         CLEAR     43  40  89 E3        30.34F FOG
LEMOORE        CLEAR     38  32  79 SW8       30.36F WCI  32
FRESNO         CLEAR     44  41  89 CALM      30.35F FOG
HANFORD        FOG       40  38  93 CALM      30.36S VSB 1/4
PORTERVILLE    CLEAR     43  37  81 SE5       30.36S
BAKERSFIELD    CLEAR     49  39  68 SE3       30.35F
$$
CAZ011-012-071-261100-
NORTHERN MOUNTAINS

CITY           SKY/WX    TMP DP  RH WIND       PRES   REMARKS
YREKA          FOG       29  28  96 CALM      30.40S VSB 1/4
MOUNT SHASTA   CLEAR     34  31  88 CALM      30.38F
ALTURAS        FOG       29  27  92 CALM      30.41S VSB 1/2
$$
CAZ011-012-071-261100-
SIERRA NEVADA MTNS

CITY           SKY/WX    TMP DP  RH WIND       PRES   REMARKS
BLUE CANYON    CLEAR     57  19  22 NE5       30.46S
TRUCKEE        CLEAR     27  25  93 CALM      30.50S
TAHOE VLY ARPT CLEAR     30  24  78 S3        30.50S
MAMMOTH LAKES  FAIR      30  16  55 CALM      30.56S
$$



USA.gov is the U.S. government's official web portal to all federal, state and local government web resources and services.